AirNav   Bose A20 Aviation Headset
 
 688 users online  

Y73 Stambaugh Airport
Iron River, Michigan, USA

GOING TO IRON RIVER?


FAA INFORMATION EFFECTIVE 11 OCTOBER 2018

Location

FAA Identifier: Y73
Lat/Long: 46-04-43.7500N / 088-38-07.8000W
46-04.729167N / 088-38.130000W
46.0788194 / -88.6355000
(estimated)
Elevation: 1618 ft. / 493 m (estimated)
Variation: 02W (1985)
From city: 1 mile SSE of IRON RIVER, MI
Time zone: UTC -5 (UTC -6 during Standard Time)
Zip code: 49935

Airport Operations

Airport use: Open to the public
Control tower: no
ARTCC: MINNEAPOLIS CENTER
FSS: GREEN BAY FLIGHT SERVICE STATION
NOTAMs facility: GRB (NOTAM-D service available)
Attendance: UNATNDD
Wind indicator: lighted
Segmented circle: yes
Lights: ACTVT LIRL RY 17/35 - 121.9.

Airport Communications

CTAF: 122.9

Nearby radio navigation aids

VOR radial/distance  VOR name  Freq  Var
IMTr308/26.9IRON MOUNTAIN VOR/DME111.2002W

 
NDB name  Hdg/Dist  Freq  Var  ID
WATERSMEET117/29.540702WRXW .-. -..- .--

Airport Services

Parking: tiedowns
Airframe service: NONE
Bottled oxygen: NONE
Bulk oxygen: NONE

Runway Information

Runway 17/35

Dimensions: 2000 x 40 ft. / 610 x 12 m
Surface: asphalt, in poor condition
NUMEROUS CRACKS IN RY.
NUMEROUS CRACKS & VEGETATION IN RY
Runway edge lights: non-standard
NSTD LIRL 26 FT FROM RY EDGE.
Runway edge markings: RWY MARKINGS ARE FADED
RUNWAY 17  RUNWAY 35
Latitude: 46-04.891667N46-04.566667N
Longitude: 088-38.166667W088-38.093333W
Elevation: 1611.0 ft.1618.0 ft.
Gradient: 0.4% UP
Traffic pattern: leftleft
Markings: NSTD, in poor conditionNSTD, in poor condition
Runway end identifier lights: nono
Obstructions: 26 ft. trees, 805 ft. from runway, 130 ft. left of centerline, 23:1 slope to clearnone

Airport Ownership and Management from official FAA records

Ownership: Publicly-owned
Owner: IRON COUNTY
COURTHOUSE 2 S 67TH STREET, SUITE 7
CRYSTAL FALLS, MI 49920
Phone 906-875-3301
Manager: KRIST ATANASOFF
303 SELDEN RD, 303 SELDEN ROAD
IRON RIVER, MI 49935
Phone 906-265-6144
AMGR RES 906-265-9087.

Airport Operational Statistics

Aircraft based on the field: 6
Single engine airplanes: 6
    
Aircraft operations: avg 44/week *
87% transient general aviation
13% local general aviation
* for 12-month period ending 31 December 2014

Additional Remarks

DEER ON & INVOF ARPT.
100 FT DROP OFF AT EACH RY END.
RY 17/35 SLOPES DOWN FM S TO N.

Instrument Procedures

There are no published instrument procedures at Y73.

Some nearby airports with instrument procedures:

KLNL - Kings Land O' Lakes Airport (24 nm W)
KIMT - Ford Airport (27 nm SE)
KEGV - Eagle River Union Airport (28 nm W)
Y55 - Crandon/Steve Conway Municipal Airport (36 nm S)
KRHI - Rhinelander-Oneida County Airport (44 nm SW)
 
Loc | Ops | Rwys | IFR | FBO | Links
Com | Nav | Svcs | Stats | Notes


 
Area around Y73 (Stambaugh Airport)
 
Road maps at: MapQuest Bing Google
 
Aerial photo
WARNING: Photo may not be current or correct
Aerial photo of Y73 (Stambaugh Airport)
Taken in 2008

Do you have a better or more recent aerial photo of Stambaugh Airport that you would like to share? If so, please send us your photo.

 
Sectional chart

 
Airport distance calculator
Flying to Stambaugh Airport? Find the distance to fly.

From to Y73

Sunrise and sunset
Times for 22-Oct-2018
 Local
(UTC-5)
 Zulu
(UTC)
Morning civil twilight06:5211:52
Sunrise07:2212:22
Sunset17:5622:56
Evening civil twilight18:2623:26

Current date and time
Zulu (UTC)  23-Oct-2018 03:57:36
Local (UTC-5)  22-Oct-2018 22:57:36
 
METAR
KLNL 
24nm W 
230355Z AUTO 33010G15KT 7SM RA BKN012 OVC020 03/02 A3008 RMK AO2 T00310016
KIMT 
27nm SE 
230254Z AUTO 31010KT 10SM OVC085 07/M02 A2999 RMK AO2 SLP164 T00721017 52016
KEGV 
28nm W 
230355Z AUTO 32010G17KT 10SM -RA BKN014 BKN026 OVC034 03/00 A3006 RMK AO2 T00330002
KRHI 
44nm SW 
230353Z AUTO 32007G14KT 10SM FEW032 SCT039 BKN050 06/M02 A3008 RMK AO2 SLP194 T00561017
KARV 
46nm W 
230355Z AUTO 32008G14KT 10SM -DZ BKN016 OVC024 04/02 A3009 RMK AO2 T00400023
TAF
KRHI 
44nm SW 
221955Z 2220/2318 29012G20KT P6SM SCT060 FM230000 32009KT P6SM BKN045 FM230400 32007KT P6SM BKN021 FM230800 32007KT P6SM BKN016
NOTAMs
Click for the latest NOTAMs
NOTAMs are issued by the DoD/FAA and will open in a separate window not controlled by AirNav.

 

 
 

Would you like to see your business listed on this page?

 If your business provides an interesting product or service to pilots, flight crews, aircraft, or users of the Stambaugh Airport, you should consider listing it here.  To start the listing process, click on the button below
 
Add a business
 

Other Pages about Stambaugh Airport

Page from the Michigan Airport Directory (PDF)
 
Update a link
 
Copyright © AirNav, LLC. All rights reserved. Privacy Policy  Contact